sat.trackr.live / text

‹ back to catalog

KL-BETA B

NORAD 49060 · 2021-070B

PAYLOAD ACTIVE UNKNOWN

§ Identity

Operator
Country
GER
Launch date
2021-08-04
Launch site
TAISC
Launch vehicle
Mass (kg)
RCS (m²)

External: N2YO · Heavens-Above · Gunter

§ Orbital elements

Epoch: 2026-09-20T22:26:09.591936Z

Period
103.25 min
Inclination
89.0116°
Eccentricity
0.0004737
Mean motion
13.94732927 rev/d
Perigee alt
908.6 km
Apogee alt
915.5 km
Semi-major
7,290.2 km
B*
1.1479e-4
RAAN
208.1480°
Arg perigee
153.6451°
Mean anomaly
206.4967°
Rev number
26,131

§ Raw data

KL-BETA B1 49060U 21070B   26263.93483324  .00000167  00000+0  11479-3 0  99922 49060  89.0116 208.1480 0004737 153.6451 206.4967 13.94732927261319

JSON: /api/v1/satellites/49060 · /tle

For live sub-satellite position, see the globe view (requires WebGL).

§ Visibility from observer

Set your observer location to see the next 7 days of passes ≥ 10°. The values pass through the URL so the page stays shareable.

No JS? Fill the form by hand. The geolocation button needs JavaScript.